Location: Heiligenberg
(48.5381°N, 7.3897°E)
Time: 22:16:33
(UTC+00:00)

USA 307 - Pass Details

Date: 26 May 2022
Orbit: 552 x 554 km, 54.0° (Epoch: 17 June)

Event Time Altitude Azimuth Distance (km) Brightness Sun altitude
Exits shadow 01:47:50 14° 258° (WSW) 1,620 4.8 -13.6°
Maximum altitude 01:51:25 63° 338° (NNW) 627 3.2 -13.3°
Drops below altitude 10° 01:55:35 10° 60° (ENE) 1,846 6.6 -12.9°
Sets 01:57:51 0° 64° (ENE) 2,743 7.6 -12.7°
